When you browse on this site, cookies collect data to enhance your experience and personalize the content and advertising you see.
Visit our Privacy Policy to learn more. By continuing to use the site, you agree to this use of cookies and data.
  • In Hungary
  • List of Countries
  • For 7 days
  • Water Temperature
  • Weather Map
  • News
  • Weather Widgets
  • user-avatar
    Login

    Hourly Weather Bierzwnica

    Today, 10 December, Tuesday

    Time Temperature Precipitation Wind Pressure Humidity
    00:00 +2°C° 0 mm 6 mps 738 mmHg 83%
    01:00 +2°C° 0 mm 6 mps 739 mmHg 80%
    02:00 +2°C° 0 mm 6 mps 740 mmHg 77%
    03:00 +1°C° 0 mm 6 mps 741 mmHg 74%
    04:00 +1°C° 0 mm 6 mps 741 mmHg 71%
    05:00 +1°C° 0 mm 6 mps 743 mmHg 72%
    06:00 -1°C° 0 mm 6 mps 744 mmHg 73%
    07:00 -1°C° 0 mm 6 mps 745 mmHg 74%
    08:00 -1°C° 0 mm 6 mps 746 mmHg 69%
    09:00 -1°C° 0 mm 6 mps 747 mmHg 63%
    10:00 -1°C° 0 mm 6 mps 748 mmHg 58%
    11:00 +1°C° 0 mm 6 mps 749 mmHg 55%
    12:00 +1°C° 0 mm 5 mps 749 mmHg 53%
    13:00 +1°C° 0 mm 5 mps 750 mmHg 50%
    14:00 0°C° 0 mm 4 mps 750 mmHg 55%
    15:00 +1°C° 0 mm 3 mps 751 mmHg 60%
    16:00 +1°C° 0 mm 2 mps 751 mmHg 65%
    17:00 -1°C° 0 mm 2 mps 751 mmHg 68%
    18:00 -1°C° 0 mm 2 mps 751 mmHg 72%
    19:00 -1°C° 0 mm 2 mps 752 mmHg 76%
    20:00 -1°C° 0 mm 2 mps 751 mmHg 79%
    21:00 -1°C° 0 mm 2 mps 751 mmHg 83%
    22:00 -1°C° 0 mm 3 mps 751 mmHg 87%
    23:00 -1°C° 0 mm 3 mps 750 mmHg 88%

    Tomorrow, 11 December, Wednesday

    Time Temperature Precipitation Wind Pressure Humidity
    00:00 -2°C° 0 mm 4 mps 750 mmHg 89%
    01:00 -2°C° 0 mm 4 mps 750 mmHg 90%
    02:00 -2°C° 0 mm 5 mps 749 mmHg 88%
    03:00 -2°C° 0 mm 5 mps 748 mmHg 87%
    04:00 -2°C° 0 mm 5 mps 747 mmHg 85%
    05:00 -3°C° 0 mm 6 mps 747 mmHg 83%
    06:00 -2°C° 0 mm 6 mps 746 mmHg 80%
    07:00 -2°C° 0 mm 7 mps 746 mmHg 78%
    08:00 -2°C° 0 mm 7 mps 746 mmHg 75%
    09:00 -2°C° 0 mm 7 mps 745 mmHg 72%
    10:00 -2°C° 0 mm 7 mps 745 mmHg 69%
    11:00 -1°C° 0 mm 7 mps 744 mmHg 66%
    12:00 -1°C° 0 mm 7 mps 744 mmHg 62%
    13:00 -1°C° 0 mm 7 mps 743 mmHg 58%
    14:00 -1°C° 0 mm 6 mps 743 mmHg 60%
    15:00 -1°C° 0 mm 6 mps 742 mmHg 63%
    16:00 -1°C° 0 mm 5 mps 742 mmHg 66%
    17:00 -1°C° 0.1 mm 5 mps 741 mmHg 67%
    18:00 -1°C° 0.1 mm 5 mps 741 mmHg 68%
    19:00 -1°C° 0.1 mm 5 mps 741 mmHg 70%
    20:00 -1°C° 0.2 mm 5 mps 741 mmHg 74%
    21:00 -2°C° 0.2 mm 5 mps 741 mmHg 78%
    22:00 -2°C° 0.2 mm 5 mps 740 mmHg 83%
    23:00 -2°C° 0.3 mm 5 mps 740 mmHg 86%

    Day after tomorrow, 12 December, Thursday

    Time Temperature Precipitation Wind Pressure Humidity
    00:00 -2°C° 0.3 mm 4 mps 740 mmHg 89%
    01:00 -2°C° 0.3 mm 4 mps 740 mmHg 92%
    02:00 -2°C° 0.5 mm 4 mps 739 mmHg 92%
    03:00 -2°C° 0.5 mm 4 mps 738 mmHg 92%
    04:00 -2°C° 0.5 mm 4 mps 738 mmHg 93%
    05:00 -2°C° 0.3 mm 4 mps 738 mmHg 93%
    06:00 -1°C° 0.3 mm 3 mps 738 mmHg 94%
    07:00 -1°C° 0.3 mm 3 mps 738 mmHg 94%
    08:00 0°C° 0.1 mm 3 mps 738 mmHg 94%
    09:00 0°C° 0.1 mm 3 mps 738 mmHg 95%
    10:00 -1°C° 0.1 mm 4 mps 738 mmHg 95%
    11:00 0°C° 0.1 mm 3 mps 738 mmHg 95%
    12:00 +1°C° 0.1 mm 3 mps 738 mmHg 95%
    13:00 +1°C° 0.1 mm 3 mps 738 mmHg 96%
    14:00 +1°C° 0 mm 3 mps 737 mmHg 96%
    15:00 +1°C° 0 mm 3 mps 737 mmHg 96%
    16:00 +1°C° 0 mm 3 mps 737 mmHg 96%
    17:00 +1°C° 0 mm 3 mps 737 mmHg 96%
    18:00 +2°C° 0 mm 2 mps 737 mmHg 95%
    19:00 +2°C° 0 mm 2 mps 737 mmHg 95%
    20:00 +2°C° 0 mm 2 mps 736 mmHg 95%
    21:00 +1°C° 0 mm 2 mps 736 mmHg 94%
    22:00 +1°C° 0 mm 2 mps 736 mmHg 94%
    23:00 0°C° 0 mm 3 mps 735 mmHg 94%

    13 December, Friday

    Time Temperature Precipitation Wind Pressure Humidity
    00:00 -1°C° 0 mm 4 mps 734 mmHg 94%
    01:00 -1°C° 0 mm 4 mps 733 mmHg 95%
    02:00 -1°C° 0 mm 5 mps 732 mmHg 93%
    03:00 -1°C° 0 mm 5 mps 731 mmHg 91%
    04:00 -2°C° 0 mm 6 mps 730 mmHg 90%
    05:00 -2°C° 0 mm 6 mps 730 mmHg 89%
    06:00 -2°C° 0 mm 6 mps 729 mmHg 88%
    07:00 -2°C° 0 mm 7 mps 728 mmHg 87%
    08:00 -2°C° 0 mm 7 mps 728 mmHg 85%
    09:00 -2°C° 0 mm 7 mps 727 mmHg 82%
    10:00 -4°C° 0 mm 8 mps 727 mmHg 79%
    11:00 -2°C° 0 mm 7 mps 726 mmHg 78%
    12:00 -2°C° 0 mm 7 mps 726 mmHg 76%
    13:00 -2°C° 0 mm 7 mps 725 mmHg 74%
    14:00 -2°C° 0.1 mm 7 mps 725 mmHg 80%
    15:00 -2°C° 0.1 mm 6 mps 725 mmHg 85%
    16:00 -3°C° 0.1 mm 6 mps 725 mmHg 91%
    17:00 -3°C° 0.2 mm 6 mps 724 mmHg 92%
    18:00 -3°C° 0.2 mm 6 mps 724 mmHg 93%
    19:00 -2°C° 0.2 mm 6 mps 724 mmHg 95%
    20:00 -2°C° 0 mm 6 mps 724 mmHg 91%
    21:00 -2°C° 0 mm 6 mps 724 mmHg 87%
    22:00 -2°C° 0 mm 6 mps 724 mmHg 83%
    23:00 -2°C° 0 mm 6 mps 724 mmHg 84%

    14 December, Saturday

    Time Temperature Precipitation Wind Pressure Humidity
    00:00 -2°C° 0 mm 6 mps 723 mmHg 84%
    01:00 -2°C° 0 mm 6 mps 723 mmHg 85%
    02:00 -2°C° 0.2 mm 7 mps 723 mmHg 88%
    03:00 -2°C° 0.2 mm 8 mps 723 mmHg 91%
    04:00 -1°C° 0.2 mm 8 mps 722 mmHg 94%
    05:00 0°C° 0.5 mm 8 mps 722 mmHg 91%
    06:00 0°C° 0.5 mm 8 mps 722 mmHg 89%
    07:00 +2°C° 0.5 mm 7 mps 722 mmHg 86%
    08:00 +2°C° 0 mm 7 mps 723 mmHg 84%
    09:00 +2°C° 0 mm 7 mps 723 mmHg 82%
    10:00 +1°C° 0 mm 8 mps 724 mmHg 80%
    11:00 +2°C° 0 mm 7 mps 724 mmHg 78%
    12:00 +2°C° 0 mm 7 mps 724 mmHg 76%
    13:00 +2°C° 0 mm 7 mps 724 mmHg 74%
    14:00 +2°C° 0.2 mm 6 mps 725 mmHg 80%
    15:00 +1°C° 0.2 mm 6 mps 725 mmHg 86%
    16:00 +1°C° 0.2 mm 6 mps 725 mmHg 91%
    17:00 +1°C° 1 mm 6 mps 725 mmHg 91%
    18:00 +1°C° 1 mm 6 mps 725 mmHg 91%
    19:00 +1°C° 1 mm 6 mps 726 mmHg 91%
    20:00 +1°C° 0.1 mm 6 mps 726 mmHg 88%
    21:00 0°C° 0.1 mm 7 mps 727 mmHg 85%
    22:00 0°C° 0.1 mm 7 mps 727 mmHg 82%
    23:00 0°C° 0.1 mm 8 mps 728 mmHg 79%

    15 December, Sunday

    Time Temperature Precipitation Wind Pressure Humidity
    00:00 0°C° 0.1 mm 8 mps 729 mmHg 77%
    01:00 0°C° 0.1 mm 9 mps 729 mmHg 74%
    02:00 0°C° 0 mm 9 mps 730 mmHg 73%
    03:00 0°C° 0 mm 9 mps 731 mmHg 73%
    04:00 0°C° 0 mm 9 mps 731 mmHg 73%
    05:00 0°C° 0 mm 9 mps 732 mmHg 73%
    06:00 0°C° 0 mm 9 mps 733 mmHg 73%
    07:00 0°C° 0 mm 9 mps 734 mmHg 73%
    08:00 0°C° 0 mm 9 mps 735 mmHg 73%
    09:00 -1°C° 0 mm 8 mps 736 mmHg 72%
    10:00 -1°C° 0 mm 7 mps 737 mmHg 72%
    11:00 -1°C° 0 mm 7 mps 737 mmHg 70%
    12:00 0°C° 0 mm 7 mps 738 mmHg 68%
    13:00 +1°C° 0 mm 6 mps 738 mmHg 66%
    14:00 +1°C° 0 mm 6 mps 738 mmHg 69%
    15:00 +1°C° 0 mm 6 mps 738 mmHg 71%
    16:00 +1°C° 0 mm 6 mps 737 mmHg 74%
    17:00 +2°C° 0.2 mm 6 mps 737 mmHg 78%
    18:00 +3°C° 0.2 mm 7 mps 737 mmHg 83%
    19:00 +4°C° 0.2 mm 7 mps 737 mmHg 87%
    20:00 +3°C° 0.1 mm 6 mps 738 mmHg 88%
    21:00 +3°C° 0.1 mm 6 mps 738 mmHg 88%
    22:00 +3°C° 0.1 mm 5 mps 739 mmHg 89%
    23:00 +3°C° 0 mm 5 mps 739 mmHg 89%
    Show more